Temperature
30 30 31 30 30 30 30 31 30 30 30 30 29 28 26 25 24 24 23 22 21 21 20 20 19 19 19 18 18 18 17 17 17 17 17 17 17 17 17 16 16 16 16 16
29 29 30 30 30 30 30 30 30 30 30 30 28 27 25 25 24 23 23 22 21 20 20 19 19 19 18 18 18 17 17 17 17 17 17 17 16 16 16 16 16 16 15 15
28 29 29 28 29 30 30 30 30 30 29 28 27 26 25 24 24 23 22 22 21 20 20 19 19 19 18 18 18 17 17 17 16 16 16 16 16 16 16 16 15 15 15 15
28 27 27 29 29 29 29 29 29 29 28 27 26 24 23 23 23 22 22 21 21 20 20 19 19 19 18 18 18 17 17 17 16 16 16 16 16 16 16 15 15 15 15 14
28 27 28 27 27 28 28 28 28 28 27 26 25 24 24 22 21 21 21 20 20 20 19 19 19 18 18 18 17 17 17 17 16 16 16 16 16 15 15 15 15 14 14 14
27 27 27 28 28 27 28 27 27 26 26 25 25 27 25 21 20 20 20 20 19 19 19 18 18 18 18 18 17 17 17 16 16 16 16 15 15 15 15 15 14 14 14 14
27 27 28 27 26 26 27 27 25 25 24 24 24 24 21 19 19 19 19 19 18 18 18 18 18 18 17 17 17 17 16 16 16 16 15 15 15 15 14 14 14 14 13 13
27 27 27 25 25 27 25 23 23 23 23 22 21 20 19 19 18 18 18 18 18 18 18 17 17 17 17 17 16 16 16 16 15 15 15 15 14 14 14 14 13 13 13 13
26 25 22 22 23 22 22 22 22 22 21 21 20 19 19 18 18 18 17 17 17 17 17 17 17 17 16 16 16 16 15 15 15 15 15 14 14 14 14 13 13 13 13 12
23 22 21 21 21 21 21 21 21 21 20 20 19 19 18 17 17 17 17 17 17 16 16 16 16 16 16 16 16 16 15 15 15 14 14 14 13 13 13 13 13 12 12 12
22 21 21 20 20 20 20 20 20 20 20 19 19 18 17 17 16 16 16 16 16 15 15 15 15 15 15 15 15 15 15 14 14 14 14 14 13 13 13 12 12 12 12 12
23 21 22 20 19 19 19 19 19 19 19 18 18 17 17 16 16 16 16 15 15 15 15 15 15 15 15 15 15 15 14 14 14 13 13 13 13 13 13 12 12 12 12 12
19 19 19 18 18 18 18 18 18 18 17 17 17 17 16 16 15 15 15 15 15 14 14 14 14 14 14 14 14 14 14 14 13 13 13 13 12 12 12 12 12 11 11 11
17 18 18 18 17 17 17 17 17 17 16 16 16 16 16 15 15 15 15 14 14 14 14 13 14 14 14 14 13 13 13 13 13 12 12 12 12 12 12 11 11 11 11 11
17 18 17 17 16 16 16 16 16 16 16 15 15 15 15 15 14 14 14 13 13 13 13 13 13 13 13 13 13 13 13 12 12 12 12 12 11 11 11 11 11 10 10 10
17 17 17 16 16 16 16 16 16 15 15 15 15 14 14 14 14 13 13 13 13 13 13 13 13 13 13 13 12 12 12 12 12 12 11 11 11 11 11 10 10 10 10 9
17 17 16 16 16 16 16 15 15 15 14 14 14 13 13 13 13 13 13 13 13 12 12 12 12 12 12 12 12 12 12 11 11 11 11 11 11 10 10 10 10 10 9 9
16 16 16 16 16 15 15 15 15 14 14 14 13 13 13 13 13 13 13 12 12 12 12 12 12 12 12 12 11 11 11 11 11 11 10 10 10 10 10 10 10 9 9 9
15 15 15 15 15 15 14 14 13 13 13 13 13 12 12 12 12 12 12 12 12 11 11 11 12 11 11 11 11 11 11 11 10 10 10 10 10 10 10 10 9 9 9 9
14 14 14 14 14 14 13 13 13 13 12 12 12 12 12 11 11 11 11 11 11 11 11 11 11 11 11 11 11 11 11 11 10 10 10 10 10 10 10 10 9 9 9 9
13 13 13 13 13 13 13 12 12 12 12 11 11 11 11 11 11 11 11 11 11 11 11 11 10 10 10 10 11 11 10 10 10 10 10 10 10 10 10 9 9 9 9 9
13 13 13 13 12 12 12 12 11 11 11 11 11 11 11 11 10 10 10 10 10 10 10 10 10 10 10 10 10 10 10 10 10 10 10 10 10 9 9 9 9 9 8 8
12 12 12 11 11 11 11 11 11 11 11 11 10 10 10 10 10 10 10 10 10 10 10 10 10 10 10 10 10 10 10 10 10 10 9 9 9 9 9 9 8 8 8 8
11 11 11 11 11 11 11 11 10 10 10 10 10 10 10 10 10 10 10 9 10 9 9 9 10 10 9 10 10 9 9 9 9 9 9 9 9 9 9 8 8 8 8 8
10 10 10 10 10 10 10 10 10 10 10 10 10 10 10 10 10 10 9 9 9 9 9 9 9 9 9 9 9 9 9 9 9 9 9 9 9 9 8 8 8 8 8 7
10 10 10 10 10 10 10 10 10 10 10 10 10 10 10 9 9 9 9 9 9 9 9 9 9 9 9 9 9 9 9 9 9 8 9 8 8 8 8 8 7 7 7 7
9 10 10 10 10 10 10 10 10 10 10 10 9 9 9 9 9 9 9 9 9 9 9 9 9 9 9 9 9 9 9 8 8 8 8 8 8 8 7 7 7 7 7 7
Wind_Speed
7 3 9 12 13 13 13 11 9 6 5 3 2 3 4 5 6 7 8 8 8 7 7 6 6 6 5 5 5 4 4 4 4 3 3 3 3 2 2 2 1 1 1 1
10 8 8 10 11 12 12 10 9 7 5 1 2 3 4 5 6 6 6 7 7 7 7 7 6 6 5 5 5 4 4 4 3 3 3 3 3 3 3 2 2 2 2 1
12 11 10 12 12 12 10 8 8 7 3 2 2 3 3 4 5 5 5 5 6 7 7 6 6 6 5 5 5 4 4 3 3 3 3 3 3 3 3 3 3 3 2 2
10 10 14 6 5 8 8 6 5 3 2 1 2 3 4 3 3 4 4 5 5 6 6 6 6 6 5 5 5 5 4 3 3 3 3 3 3 4 3 3 3 3 3 3
11 14 11 6 6 8 8 6 4 4 3 3 4 5 5 4 3 3 4 4 4 5 6 6 6 6 6 5 5 5 4 4 4 3 3 4 3 4 4 3 3 2 3 3
11 13 13 8 9 5 6 6 4 4 4 4 5 4 3 4 4 4 4 4 5 5 6 6 6 6 6 5 4 4 3 3 3 3 3 4 4 3 3 3 3 3 3 3
13 11 8 6 8 8 9 4 5 5 5 4 2 4 6 5 5 5 5 5 6 6 6 6 6 5 5 4 3 3 3 3 3 3 3 3 4 3 4 4 4 3 4 3
12 13 7 7 8 6 3 6 6 5 5 5 7 7 7 6 6 6 6 6 6 6 6 6 5 5 5 3 3 3 3 3 3 3 3 3 4 4 4 4 4 4 3 3
4 3 6 5 4 5 4 6 6 6 6 7 8 8 7 7 6 6 6 6 6 6 6 6 5 4 4 3 3 3 3 3 2 2 3 3 4 4 4 4 3 3 3 3
3 5 6 5 5 5 5 6 7 7 7 8 8 8 7 6 6 6 6 6 6 6 6 5 4 4 3 3 3 3 3 2 2 2 3 4 3 3 3 3 3 3 3 2
4 7 7 6 6 7 7 8 8 8 8 8 8 7 7 5 5 5 5 5 5 5 5 4 4 3 3 3 3 3 3 2 2 2 4 4 3 2 2 2 1 1 2 3
4 6 5 7 6 8 9 8 8 8 8 7 7 7 6 5 5 5 5 4 4 4 4 4 3 3 3 2 2 2 2 2 2 3 3 3 4 4 7 5 6 6 5 3
4 6 7 9 8 8 9 8 8 7 7 7 6 6 6 5 5 4 4 4 4 3 3 3 3 3 2 2 2 2 1 2 2 2 2 2 3 3 3 4 6 6 5 4
7 8 10 9 8 8 8 8 8 7 7 6 6 5 5 5 4 4 4 4 3 3 3 3 3 3 2 2 2 2 2 2 2 2 2 2 2 2 3 3 3 3 4 5
5 6 8 9 9 8 7 7 7 6 6 5 4 4 4 4 4 3 3 3 3 3 3 3 3 3 3 2 2 3 3 2 2 2 2 3 3 3 3 3 3 3 4 4
7 8 9 9 8 7 6 5 5 5 4 4 3 3 3 3 3 3 3 2 2 3 3 2 2 2 2 2 2 3 3 4 2 3 3 3 3 3 3 3 3 4 3 3
8 8 7 7 6 5 4 4 4 3 3 3 3 2 2 3 3 3 2 2 2 2 2 2 2 2 2 2 2 2 3 4 3 3 3 3 3 3 3 3 3 3 3 3
4 5 5 5 5 5 4 3 3 3 2 2 2 2 2 2 2 2 2 2 2 2 2 2 2 1 1 2 1 2 3 3 3 3 3 3 3 3 2 2 3 2 3 4
5 5 5 5 4 4 4 3 3 3 2 2 1 1 1 2 2 2 2 2 1 1 1 2 1 1 2 2 1 2 3 3 4 3 3 4 3 3 3 2 2 2 3 3
5 5 5 5 4 4 4 3 3 3 2 1 1 2 2 2 2 2 2 1 1 2 1 1 1 1 2 2 1 3 3 3 4 4 3 3 2 3 3 3 3 2 2 2
5 4 4 4 4 3 3 3 3 2 2 1 1 2 2 2 2 2 1 1 2 2 1 1 1 1 2 1 2 2 3 3 3 3 3 2 2 2 2 2 2 2 2 2
4 4 4 3 3 3 3 2 2 2 2 1 2 2 3 3 3 2 2 2 2 1 0 2 2 3 2 1 2 2 3 3 3 3 2 2 2 2 1 1 1 2 2 1
3 3 3 3 3 3 3 2 2 2 2 2 2 3 3 2 2 2 2 2 2 0 0 2 4 4 2 1 2 3 3 3 2 2 2 2 2 2 1 1 2 1 1 1
3 3 3 3 3 3 3 3 3 3 3 2 2 3 3 3 3 2 3 4 3 1 2 5 4 1 2 1 3 3 3 3 2 2 2 2 2 2 2 2 2 1 1 1
3 3 3 3 3 3 3 4 4 4 4 3 3 3 3 2 2 3 4 4 4 2 3 5 4 1 1 3 3 3 2 2 2 2 2 2 2 2 2 2 2 2 2 1
3 2 2 2 2 2 3 3 3 3 4 4 4 4 3 3 4 4 4 5 5 3 3 3 3 2 3 3 3 3 3 3 3 2 2 3 3 3 3 2 2 2 2 2
3 3 3 2 2 3 2 3 3 3 3 4 4 4 4 4 4 4 4 4 4 3 3 3 3 3 3 3 3 3 3 2 2 2 2 3 2 2 3 3 2 2 3 3
Wind_Direction
235 202 197 203 202 204 221 240 247 235 239 235 185 161 153 154 156 158 160 160 162 161 157 156 153 152 151 152 155 156 156 154 155 158 164 168 157 153 143 132 133 132 123 142
211 203 206 210 206 206 218 231 241 246 239 177 131 139 149 155 160 163 164 165 164 163 161 162 161 158 156 153 154 157 159 155 148 147 148 148 146 143 137 130 127 119 107 103
209 199 207 214 209 208 209 219 231 236 230 154 157 153 157 158 159 162 164 162 165 165 165 165 163 159 158 156 152 153 151 145 144 142 136 140 142 141 135 127 119 108 99 91
209 194 219 204 183 208 208 210 223 227 193 169 135 124 116 120 142 150 157 162 163 160 158 158 155 151 148 145 146 146 146 150 158 158 149 142 147 143 140 131 118 106 95 88
213 211 211 178 180 193 200 206 202 200 177 141 130 147 123 92 114 135 144 150 149 150 146 139 138 138 141 143 147 149 153 159 164 172 171 156 150 149 142 136 126 117 105 99
215 223 218 194 161 178 200 200 163 170 160 153 167 203 119 91 96 100 110 120 124 126 125 125 130 137 141 144 147 155 162 165 163 169 167 161 152 148 141 142 139 131 107 98
214 221 216 135 149 175 208 166 131 148 148 159 142 55 99 103 91 90 95 106 115 116 113 115 123 131 134 135 143 146 148 147 148 155 159 154 140 143 145 140 128 118 111 105
216 221 199 137 170 191 95 98 126 131 129 116 103 102 106 101 93 90 91 98 107 110 107 107 113 121 121 119 120 132 144 149 151 153 155 140 142 144 145 142 142 141 137 128
217 191 95 129 119 95 112 119 123 123 117 122 121 115 107 99 92 85 83 86 92 99 100 95 93 102 106 98 106 123 133 137 140 141 134 136 146 145 149 157 165 165 166 165
135 117 120 120 116 116 119 122 123 121 121 123 120 114 107 99 92 87 83 86 91 94 92 85 78 79 82 87 99 113 118 126 132 137 129 128 138 144 151 163 180 180 176 177
145 133 129 117 109 114 118 121 120 117 115 115 117 115 110 103 93 85 80 83 87 94 95 90 83 81 82 93 111 116 124 141 151 149 139 134 120 92 132 99 98 191 179 175
157 152 145 130 123 121 120 117 114 114 111 109 111 114 110 103 95 92 88 90 94 96 95 90 87 84 81 93 113 129 141 150 146 143 144 143 135 106 59 67 65 51 34 33
112 128 119 122 121 117 113 108 104 104 105 104 102 106 108 105 101 97 95 93 90 88 91 90 85 78 62 54 74 102 121 123 117 124 133 139 149 154 136 98 81 70 64 60
127 128 125 124 118 112 108 106 102 96 94 95 98 101 102 104 104 99 92 87 85 86 87 90 90 76 60 63 83 100 105 100 111 121 126 128 134 138 141 142 132 112 92 93
132 132 126 122 116 111 108 109 108 102 97 92 96 99 101 100 98 90 83 82 88 89 79 81 83 76 76 86 91 99 100 102 108 114 118 115 114 115 121 126 121 114 112 110
128 124 125 124 121 121 120 118 113 108 103 98 92 89 93 98 101 96 88 86 87 75 66 67 68 66 85 103 110 108 94 79 100 121 120 120 120 121 122 125 122 116 118 121
137 136 135 135 131 127 120 114 110 108 111 107 101 101 105 109 107 99 86 75 73 78 76 65 56 61 93 119 131 119 115 120 137 127 116 119 121 123 122 121 126 134 135 127
141 135 137 138 135 126 117 112 109 105 100 94 101 118 123 123 115 102 93 84 86 84 70 62 55 62 95 115 121 120 125 130 128 117 117 117 113 112 113 121 131 132 122 131
135 133 130 126 125 126 124 120 114 107 105 105 112 114 115 111 110 109 112 118 122 113 79 71 82 146 115 112 136 146 136 130 123 119 119 126 132 123 126 125 121 117 117 123
126 127 125 122 121 124 127 127 127 125 123 122 122 123 124 121 124 126 129 121 79 61 91 90 159 132 129 136 215 139 131 128 125 124 121 117 119 127 128 119 114 110 104 109
131 131 131 128 121 119 124 129 134 134 134 139 141 141 136 135 132 135 148 119 79 55 94 151 166 127 120 128 207 137 135 132 127 122 127 133 132 121 109 103 106 110 102 99
132 133 135 136 138 130 122 126 133 138 138 143 153 145 143 145 148 141 122 106 119 52 184 149 122 72 38 279 145 125 126 126 122 119 123 119 115 113 108 108 114 119 114 114
129 133 141 149 148 143 146 152 151 147 145 148 151 155 152 146 146 149 140 117 122 112 138 85 72 65 333 234 107 101 99 103 109 119 119 111 107 108 107 108 103 112 126 148
133 141 147 153 156 158 160 155 145 140 145 149 150 150 150 150 149 142 126 120 97 79 80 80 84 73 264 129 107 104 106 112 118 120 114 112 112 107 95 86 86 97 100 90
135 143 150 161 163 161 158 157 153 155 158 144 137 137 143 137 138 126 119 117 115 131 115 115 134 208 180 102 100 98 98 95 99 102 104 98 92 89 82 76 73 65 56 36
143 146 144 161 157 165 166 164 162 159 152 143 137 136 133 131 133 129 128 127 124 120 113 124 132 163 115 109 108 103 100 107 107 104 92 92 89 76 64 54 51 41 40 35
137 138 146 151 152 158 155 150 147 146 145 144 143 140 135 133 135 134 128 125 129 131 123 121 119 108 100 102 104 100 95 89 85 80 85 82 77 74 75 72 55 49 43 42
Height
1496 1494 1495 1500 1504 1507 1508 1506 1510 1510 1511 1510 1513 1517 1521 1524 1526 1529 1531 1533 1534 1536 1537 1538 1539 1540 1540 1541 1542 1542 1543 1544 1544 1544 1544 1544 1544 1544 1544 1544 1544 1544 1544 1544
1503 1499 1499 1502 1501 1503 1505 1505 1505 1507 1509 1510 1514 1518 1521 1523 1526 1528 1530 1532 1534 1535 1536 1537 1538 1539 1540 1540 1541 1542 1542 1543 1543 1543 1543 1543 1543 1543 1543 1543 1543 1543 1543 1543
1504 1500 1504 1509 1501 1501 1503 1503 1504 1507 1508 1511 1514 1518 1521 1523 1525 1527 1529 1531 1532 1534 1535 1536 1537 1538 1539 1539 1540 1541 1541 1542 1542 1542 1542 1543 1543 1543 1543 1542 1542 1542 1542 1542
1499 1508 1520 1501 1496 1498 1501 1503 1504 1506 1509 1512 1516 1519 1522 1523 1525 1526 1528 1529 1531 1532 1533 1534 1535 1537 1537 1538 1538 1539 1539 1540 1541 1541 1541 1541 1541 1541 1541 1542 1542 1541 1541 1541
1499 1507 1505 1502 1500 1500 1503 1505 1505 1507 1510 1513 1516 1519 1521 1524 1525 1526 1527 1528 1529 1531 1532 1533 1534 1535 1536 1537 1538 1538 1538 1538 1539 1539 1539 1539 1539 1539 1540 1540 1541 1541 1540 1540
1499 1504 1508 1497 1497 1501 1504 1508 1507 1509 1511 1514 1515 1513 1519 1524 1524 1525 1526 1527 1528 1529 1531 1531 1532 1534 1535 1536 1537 1537 1537 1537 1537 1538 1538 1538 1537 1538 1538 1539 1540 1540 1539 1539
1496 1500 1493 1494 1499 1503 1510 1507 1508 1510 1513 1515 1516 1517 1522 1523 1524 1525 1526 1527 1528 1528 1529 1530 1531 1533 1534 1535 1535 1536 1536 1536 1536 1536 1536 1536 1536 1537 1537 1537 1538 1538 1538 1538
1492 1498 1499 1499 1500 1500 1504 1507 1509 1512 1514 1516 1519 1521 1523 1524 1525 1526 1527 1527 1528 1528 1529 1530 1531 1532 1533 1533 1533 1534 1534 1535 1535 1535 1535 1535 1535 1535 1535 1536 1536 1537 1537 1537
1489 1495 1499 1501 1502 1505 1507 1509 1511 1513 1516 1517 1519 1522 1523 1525 1526 1527 1527 1527 1528 1528 1529 1530 1531 1531 1532 1532 1533 1533 1533 1533 1534 1534 1534 1533 1533 1533 1534 1534 1535 1536 1536 1536
1494 1498 1501 1503 1505 1507 1508 1510 1513 1515 1517 1518 1520 1522 1524 1525 1526 1527 1528 1528 1529 1529 1530 1530 1531 1531 1532 1531 1531 1531 1532 1532 1532 1532 1532 1532 1531 1532 1533 1533 1534 1534 1535 1534
1495 1501 1503 1505 1507 1508 1510 1512 1514 1516 1518 1519 1521 1522 1524 1525 1527 1527 1528 1528 1529 1529 1530 1530 1531 1531 1531 1531 1531 1530 1530 1530 1530 1531 1530 1530 1531 1531 1531 1531 1532 1533 1533 1533
1493 1500 1501 1506 1508 1510 1512 1513 1515 1517 1519 1520 1521 1523 1524 1526 1527 1527 1528 1529 1529 1530 1530 1530 1530 1530 1530 1530 1530 1529 1529 1528 1529 1529 1529 1529 1529 1529 1529 1530 1530 1531 1531 1531
1500 1502 1504 1507 1510 1511 1513 1515 1517 1518 1520 1521 1522 1524 1525 1526 1527 1527 1528 1529 1530 1530 1530 1529 1529 1529 1529 1528 1528 1528 1528 1527 1527 1528 1528 1528 1528 1528 1529 1529 1529 1529 1529 1529
1502 1504 1506 1509 1511 1513 1515 1516 1518 1519 1521 1522 1523 1524 1526 1527 1527 1528 1528 1529 1529 1529 1529 1528 1528 1528 1527 1527 1527 1527 1527 1527 1526 1526 1527 1527 1527 1527 1528 1528 1528 1528 1528 1528
1504 1506 1508 1510 1512 1514 1516 1518 1519 1520 1522 1523 1524 1525 1526 1527 1527 1528 1528 1528 1528 1528 1528 1528 1527 1527 1526 1526 1526 1526 1526 1526 1526 1526 1526 1526 1526 1526 1527 1527 1527 1527 1527 1527
1506 1507 1509 1512 1514 1516 1518 1519 1520 1521 1522 1523 1524 1525 1526 1526 1526 1527 1527 1528 1528 1528 1527 1527 1527 1526 1525 1525 1525 1525 1525 1525 1525 1525 1525 1526 1526 1526 1526 1526 1527 1527 1527 1526
1507 1509 1511 1513 1515 1517 1518 1520 1521 1521 1522 1523 1524 1524 1525 1525 1526 1526 1526 1527 1527 1526 1526 1526 1525 1525 1525 1524 1525 1525 1524 1524 1524 1525 1525 1525 1525 1526 1526 1526 1526 1527 1527 1527
1508 1510 1512 1513 1515 1517 1518 1519 1520 1521 1522 1522 1523 1523 1524 1524 1524 1524 1525 1525 1525 1525 1525 1525 1524 1524 1524 1524 1524 1524 1524 1524 1524 1524 1524 1525 1525 1526 1526 1526 1526 1526 1526 1526
1509 1510 1512 1514 1515 1517 1518 1519 1520 1521 1521 1522 1522 1522 1522 1523 1523 1523 1523 1524 1524 1524 1524 1523 1523 1523 1523 1523 1523 1523 1524 1524 1524 1524 1525 1525 1525 1525 1526 1526 1526 1526 1526 1526
1509 1510 1512 1513 1515 1516 1517 1518 1519 1519 1520 1521 1521 1521 1521 1521 1522 1522 1522 1522 1523 1523 1522 1522 1522 1522 1522 1522 1522 1523 1523 1523 1524 1524 1525 1525 1525 1525 1526 1526 1526 1525 1526 1526
1508 1510 1511 1513 1514 1515 1516 1517 1517 1518 1519 1520 1520 1520 1520 1520 1521 1521 1521 1522 1521 1521 1521 1521 1521 1522 1522 1521 1522 1522 1523 1523 1524 1524 1524 1525 1525 1525 1525 1525 1525 1525 1525 1525
1508 1509 1510 1512 1513 1514 1515 1516 1516 1517 1517 1518 1519 1519 1519 1519 1520 1520 1520 1521 1520 1520 1520 1521 1521 1520 1520 1521 1522 1522 1522 1523 1523 1523 1524 1524 1525 1524 1524 1524 1524 1524 1524 1524
1507 1509 1510 1511 1512 1513 1514 1514 1515 1516 1516 1517 1517 1518 1518 1518 1519 1520 1520 1520 1520 1520 1520 1520 1520 1520 1520 1521 1521 1522 1522 1522 1523 1523 1523 1524 1524 1524 1524 1524 1524 1523 1523 1523
1507 1508 1509 1510 1511 1512 1513 1513 1514 1515 1515 1516 1516 1517 1517 1518 1518 1519 1519 1519 1519 1520 1520 1520 1520 1520 1520 1521 1522 1522 1522 1522 1523 1523 1523 1523 1523 1524 1523 1523 1523 1523 1523 1523
1506 1507 1508 1509 1510 1511 1511 1512 1513 1513 1514 1515 1516 1516 1517 1517 1518 1518 1519 1519 1519 1520 1521 1521 1521 1521 1521 1522 1522 1522 1523 1523 1523 1523 1523 1523 1523 1523 1523 1523 1523 1523 1522 1522
1505 1506 1507 1508 1509 1509 1510 1511 1512 1513 1514 1514 1515 1516 1516 1517 1518 1518 1519 1520 1520 1521 1521 1521 1521 1522 1522 1522 1523 1523 1523 1523 1524 1524 1524 1524 1524 1523 1523 1523 1522 1522 1522 1521
1505 1506 1506 1507 1508 1509 1509 1510 1511 1512 1513 1514 1515 1516 1516 1517 1518 1519 1519 1520 1521 1521 1522 1522 1522 1522 1523 1523 1524 1524 1524 1525 1525 1524 1524 1524 1524 1523 1523 1522 1522 1521 1521 1520